Location: Unspecified
(51.6250°N, 0.8230°E)
Time: 10:18:58
(UTC+01:00)

Okean 3 - Pass Details

Date: 09 August 2020
Orbit: 576 x 601 km, 82.5° (Epoch: 23 September)

Event Time Altitude Azimuth Distance (km) Brightness Sun altitude
Rises 23:50:59 0° 344° (NNW) 2,850 8.5 -21.1°
Reaches altitude 10° 23:53:16 10° 339° (NNW) 1,946 7.3 -21.2°
Maximum altitude 23:57:22 45° 266° (W) 820 4.2 -21.4°
Enters shadow 23:58:18 39° 230° (SW) 913 4.2 -21.5°
